Bookmark and Share
Track history (hours):
 

Daikoku

Last reported at 2014-Apr-17 16:08 UTC. Time now 2014-Apr-18 08:07 UTC.
Position N 35°02' E 138°31'.

Length 95 m; draft 3.9 m.

Type: Cargo ship. MMSI: 431003009.

NotesDate/timePositionNaut miles runAvg speedWind from/ knotsBaromVisibWave heightAir tempDewpointWater temp
2014-Apr-17 16:08N 35°02' E 138°31'40 7.1
2014-Apr-17 10:27N 34°53' E 139°18'1311.0
2014-Apr-17 09:15N 35°00' E 139°32'811.5
2014-Apr-17 08:33N 35°05' E 139°40'1110.8
2014-Apr-17 07:33N 35°14' E 139°46'1010.4
2014-Apr-17 06:33N 35°24' E 139°41'1 0.7
2014-Apr-17 05:33N 35°24' E 139°42'1010.2
2014-Apr-17 04:33N 35°31' E 139°50'0 0.1
2014-Apr-17 03:29N 35°31' E 139°50'7 7.2
2014-Apr-17 02:33N 35°36' E 139°46'0 0.0
2014-Apr-17 01:33N 35°36' E 139°46'0 0.0
2014-Apr-17 00:33N 35°36' E 139°46'0 0.0
2014-Apr-16 23:28N 35°36' E 139°46'6 6.9
2014-Apr-16 22:33N 35°33' E 139°53'0 0.0
2014-Apr-16 21:32N 35°33' E 139°53'0 0.0
2014-Apr-16 20:32N 35°33' E 139°53'0 0.0
2014-Apr-16 19:26N 35°33' E 139°53'0 0.0
2014-Apr-16 18:29N 35°33' E 139°53'0 0.0
2014-Apr-16 17:26N 35°33' E 139°53'6 7.2
2014-Apr-16 16:34N 35°27' E 139°50'1110.8
2014-Apr-16 15:33N 35°17' E 139°46'1111.2
2014-Apr-16 14:34N 35°06' E 139°45'1211.8
2014-Apr-16 13:33N 34°58' E 139°35'1212.1
2014-Apr-16 12:33N 34°51' E 139°22'216 8.6
2014-Apr-15 11:32N 34°23' E 135°02'1111.3
2014-Apr-15 10:34N 34°31' E 135°12'8 8.4
2014-Apr-15 09:33N 34°39' E 135°15'1 0.4
2014-Apr-15 07:29N 34°40' E 135°14'0 0.0
2014-Apr-15 06:29N 34°40' E 135°14'0 0.0
2014-Apr-15 03:30N 34°40' E 135°14'0 0.0
2014-Apr-15 02:30N 34°40' E 135°14'0 0.0
2014-Apr-15 01:30N 34°40' E 135°14'0 0.0
2014-Apr-15 00:30N 34°40' E 135°14'0 0.0
2014-Apr-14 23:30N 34°40' E 135°14'0 0.0
2014-Apr-14 22:30N 34°40' E 135°14'0 0.0
2014-Apr-14 21:30N 34°40' E 135°14'3 3.3
2014-Apr-14 20:32N 34°38' E 135°17'6 5.7
2014-Apr-14 19:33N 34°33' E 135°14'1212.1
2014-Apr-14 18:32N 34°23' E 135°04'1110.8
2014-Apr-14 17:33N 34°14' E 134°59'1111.4
2014-Apr-14 16:34N 34°02' E 134°60'214 4.6
2014-Apr-12 18:30N 34°49' E 139°13'1212.5
2014-Apr-12 17:30N 34°56' E 139°26'1212.4
2014-Apr-12 16:33N 35°03' E 139°37'1212.1
2014-Apr-12 15:33N 35°13' E 139°46'1111.2
2014-Apr-12 14:33N 35°23' E 139°42'3 2.9
2014-Apr-12 13:32N 35°26' E 139°41'0 0.0
2014-Apr-12 12:32N 35°26' E 139°41'2 1.7
2014-Apr-12 11:33N 35°26' E 139°43'2 2.4
2014-Apr-12 10:32N 35°24' E 139°45'0 0.0
2014-Apr-12 09:32N 35°24' E 139°45'3 3.3
2014-Apr-12 08:33N 35°24' E 139°41'0 0.0
2014-Apr-12 07:33N 35°24' E 139°41'1 0.8
2014-Apr-12 06:33N 35°24' E 139°42'6 5.9
2014-Apr-12 05:33N 35°29' E 139°45'3 2.9
2014-Apr-12 04:33N 35°26' E 139°45'1211.7
2014-Apr-12 03:33N 35°15' E 139°47'1211.5
2014-Apr-12 02:33N 35°04' E 139°43'236 5.5
2014-Apr-10 08:03N 34°22' E 135°01'612.3
2014-Apr-10 07:33N 34°26' E 135°06'1312.6
2014-Apr-10 06:33N 34°34' E 135°18'8 7.8
2014-Apr-10 05:33N 34°39' E 135°26'0 0.0
2014-Apr-10 04:31N 34°39' E 135°26'0 0.0
2014-Apr-10 03:25N 34°39' E 135°26'0 0.0
2014-Apr-10 02:31N 34°39' E 135°26'0 0.5
2014-Apr-10 01:33N 34°39' E 135°25'1212.2
2014-Apr-10 00:33N 34°31' E 135°14'1212.2
2014-Apr-09 23:33N 34°22' E 135°03'1211.9
2014-Apr-09 22:33N 34°11' E 134°59'1212.5
2014-Apr-09 21:34N 33°59' E 135°00'185 7.4
2014-Apr-08 20:33N 35°02' E 138°31'0 0.0
2014-Apr-08 19:30N 35°02' E 138°31'0 0.0
2014-Apr-08 18:33N 35°02' E 138°31'35 4.8
2014-Apr-08 11:24N 34°45' E 139°07'1011.9
2014-Apr-08 10:33N 34°52' E 139°16'1212.1
2014-Apr-08 09:33N 34°59' E 139°28'1212.3
2014-Apr-08 08:34N 35°06' E 139°41'1211.6
2014-Apr-08 07:34N 35°17' E 139°45'10 9.6
2014-Apr-08 06:33N 35°26' E 139°41'3 2.8
2014-Apr-08 05:34N 35°23' E 139°41'1 0.8
2014-Apr-08 04:33N 35°24' E 139°41'3 2.8
2014-Apr-08 03:34N 35°23' E 139°44'0 0.1
2014-Apr-08 02:34N 35°23' E 139°44'0 0.3
2014-Apr-08 01:33N 35°23' E 139°43'1111.0
2014-Apr-08 00:33N 35°12' E 139°47'1111.5
2014-Apr-07 23:33N 35°02' E 139°40'1211.7
2014-Apr-07 22:31N 34°54' E 139°28'  

Dump ship's entire track history

sailing weather and tide predictions

Daikoku — JD3247 — position and weather